Cosmos 1220 - Orbit

View from above orbital plane
View from above orbital plane
View from above satellite
View from above satellite

Ground track
Ground track

The orbit data is extracted from the following two-line orbital elements,

1 12054U 80089A   13140.84716009  .00024672  00000-0  35171-3 0  2625
2 12054 064.9597 263.2295 0045508 278.7115 225.3806 15.55041469687980
Epoch (UTC): 20 May 2013 20:19:54
Eccentricity: 0.0045508
inclination: 64.9597°
perigee height: 371 km
apogee height: 433 km
right ascension of ascending node: 263.2295°
argument of perigee: 278.7115°
revolutions per day: 15.55041469
mean anomaly at epoch: 225.3806°
orbit number at epoch: 68798

The dashed part of the orbit path shows where the satellite is in the earth's shadow,  

Developed and maintained by Chris Peat, Heavens-Above GmbH. Please read the updated FAQ before sending e-mail. Imprint. DLR